Regional Weather Roundup
Issued by NWS Nashville, TN

Home | Current Version | Previous Version | Text Only | Print | Product List | Glossary On
Versions: 1 2 3 4 5 6 7 8 9 10 11 12 13 14 15 16 17 18 19 20 21 22 23 24 25 26 27 28 29 30 31 32 33 34 35 36 37 38 39 40 41 42 43 44 45 46 47 48
000
ASUS44 KOHX 031510
RWROHX
MIDDLE TENNESSEE HOURLY WEATHER ROUNDUP
NATIONAL WEATHER SERVICE NASHVILLE TN
1000 AM CDT THU SEP 03 2015

NOTE: "FAIR" INDICATES FEW OR NO CLOUDS BELOW 12,000 FEET WITH
NO SIGNIFICANT WEATHER AND/OR OBSTRUCTIONS TO VISIBILITY.

* THESE REPORTS ARE NOT UNDER NWS QUALITY CONTROL AND MAY NOT
  REPORT WEATHER SUCH AS PRECIPITATION AND FOG.


TNZ005>011-023>034-057-059-062>066-078-080-031600
...NORTHERN MIDDLE TENNESSEE...

CITY           SKY/WX    TMP DP  RH WIND       PRES   REMARKS
CLARKSVILLE    SUNNY     84  69  60 VRB3      30.04F
CROSSVILLE     SUNNY     82  64  54 NE7       30.11S
DICKSON        SUNNY     82  70  65 SE3       30.05S
LIVINGSTON     SUNNY     82  68  62 NE3       30.09S
NASHVILLE      MOSUNNY   87  67  51 NE5       30.05S HX  90
SMYRNA         SUNNY     87  70  57 CALM      30.05S HX  92
$$
TNZ056-058-060-061-075>077-079-093>097-031600
...SOUTHERN MIDDLE TENNESSEE...

CITY           SKY/WX    TMP DP  RH WIND       PRES   REMARKS
COLUMBIA       SUNNY     82  77  83 N3        30.04S HX  91
LEWISBURG      SUNNY     83  72  69 CALM      30.04S
MCMINNVILLE    SUNNY     82  73  74 CALM      30.07R
SHELBYVILLE    SUNNY     84  73  70 CALM      30.06R HX  91
TULLAHOMA      SUNNY     82  70  65 N3        30.07S
WINCHESTER     SUNNY     82  72  69 CALM      30.05F
$$


...KEY TO REMARKS...
VSB - VISIBILITY IN MILES
WCI - WIND CHILL INDEX
HX  - HEAT INDEX




USA.gov is the U.S. government's official web portal to all federal, state and local government web resources and services.